Syracuse, NY

8:16 AM EST on December 10, 2019 (GMT -0500)
Syracuse Hancock International

Weather History for KSYR - October, 2019

Change the Weather History Date:

Friday, October 25, 2019

  Actual Average Record
Temperature  
Mean Temperature 46 °F 48 °F  
Max Temperature 50 °F 57 °F 81 °F (1963)
Min Temperature 43 °F 39 °F 24 °F (1982)
Degree Days  
Heating Degree Days 18 17  
Month to date heating degree days 310 341  
Since 1 July heating degree days 385 508  
Cooling Degree Days 0 0  
Month to date cooling degree days 11 0  
Year to date cooling degree days 622 565  
Moisture  
Dew Point 43 °F    
Average Humidity 83    
Maximum Humidity 93    
Minimum Humidity 71    
Precipitation  
Precipitation 0.10 in 0.11 in 1.58 in (1980)
Month to date precipitation 4.12 2.77  
Year to date precipitation 38.25 31.05  
Snow  
Snow 0.00 in 0.10 in 0.80 in (1955)
Month to date snowfall 0.0 0.2  
Since 1 July snowfall T 0.2  
Since 1 September snowfall T 0.2  
Snow Depth 0.00 in    
Sea Level Pressure  
Sea Level Pressure 30.26 in    
Wind  
Wind Speed 2 mph ()    
Max Wind Speed 10 mph    
Max Gust Speed 12 mph    
Visibility 9.5 miles    
Events Rain    
T = Trace of Precipitation, MM = Missing Value Source: Averaged Metar Reports

Daily Weather History Graph

Daily Weather History Graph

Search for Another Location

Airport or City:

Astronomy

Oct. 25, 2019 Rise Set
Actual Time 7:29 AM EDT 6:06 PM EDT
Civil Twilight 7:00 AM EDT 6:35 PM EDT
Nautical Twilight 6:27 AM EDT 7:08 PM EDT
Astronomical Twilight 5:54 AM EDT 7:41 PM EDT
Moon 4:02 AM EDT (10/25) 5:13 PM EDT (10/25)
Length of Visible Light 11h 34m
Length of Day
10h 36m
Waning Crescent, 9% of the Moon is Illuminated
Oct 25
Waning Crescent
Oct 27
New
Nov 4
First Quarter
Nov 12
Full
Nov 19
Last Quarter

Hourly Weather History & Observations

Time (EDT) Temp. Dew Point Humidity Pressure Visibility Wind Dir Wind Speed Gust Speed Precip Events Conditions
12:54 AM 48.0 °F 42.1 °F 80% 30.32 in 10.0 mi Calm Calm - N/A   Overcast
1:54 AM 48.0 °F 43.0 °F 83% 30.31 in 10.0 mi Calm Calm - N/A   Overcast
2:54 AM 48.0 °F 43.0 °F 83% 30.32 in 10.0 mi NNW 4.6 mph - N/A   Overcast
3:54 AM 48.0 °F 42.1 °F 80% 30.32 in 10.0 mi North 4.6 mph - N/A   Overcast
4:54 AM 48.0 °F 39.9 °F 74% 30.32 in 10.0 mi Calm Calm - N/A   Overcast
5:54 AM 46.0 °F 39.9 °F 79% 30.32 in 10.0 mi Calm Calm - N/A   Mostly Cloudy
6:54 AM 46.9 °F 39.9 °F 77% 30.31 in 10.0 mi Calm Calm - 0.00 in Rain Light Rain
7:54 AM 46.0 °F 41.0 °F 83% 30.32 in 10.0 mi Calm Calm - 0.00 in   Overcast
8:54 AM 46.9 °F 42.1 °F 83% 30.33 in 10.0 mi NW 4.6 mph - N/A   Overcast
9:54 AM 48.9 °F 42.1 °F 77% 30.32 in 10.0 mi Calm Calm - N/A   Overcast
10:54 AM 50.0 °F 41.0 °F 71% 30.31 in 10.0 mi East 3.5 mph - N/A   Overcast
11:54 AM 50.0 °F 41.0 °F 71% 30.29 in 10.0 mi East 4.6 mph - 0.00 in Rain Light Rain
12:54 PM 48.9 °F 44.1 °F 83% 30.25 in 10.0 mi ESE 6.9 mph - 0.04 in Rain Light Rain
1:54 PM 50.0 °F 46.0 °F 86% 30.24 in 10.0 mi NNW 9.2 mph - 0.02 in Rain Light Rain
2:54 PM 50.0 °F 45.0 °F 83% 30.22 in 10.0 mi North 6.9 mph - 0.00 in   Overcast
3:54 PM 48.9 °F 44.1 °F 83% 30.21 in 10.0 mi ESE 5.8 mph - N/A   Overcast
4:54 PM 50.0 °F 44.1 °F 80% 30.21 in 10.0 mi Calm Calm - N/A   Overcast
5:54 PM 48.9 °F 44.1 °F 83% 30.20 in 10.0 mi Calm Calm - 0.00 in Rain Light Rain
6:54 PM 48.0 °F 45.0 °F 89% 30.21 in 10.0 mi Calm Calm - 0.00 in Rain Light Rain
7:54 PM 48.0 °F 45.0 °F 89% 30.21 in 10.0 mi Calm Calm - 0.02 in Rain Light Rain
8:54 PM 48.0 °F 46.0 °F 93% 30.20 in 9.0 mi Calm Calm - 0.00 in   Overcast
9:54 PM 48.0 °F 46.0 °F 93% 30.20 in 8.0 mi West 3.5 mph - 0.00 in Rain Light Rain
10:54 PM 48.0 °F 46.0 °F 93% 30.20 in 5.0 mi Calm Calm - 0.02 in Rain Light Rain
11:54 PM 46.9 °F 45.0 °F 93% 30.20 in 5.0 mi West 3.5 mph - 0.00 in   Overcast